Probability
0 0 0 0 0 0 0 0 0 0 2 5 7 9 10 9 9 9 10 10 13 18 20 18 16 15 13 12 14 18 20 19 19 19 21 20 16 12 11 11 12 13 12 13
0 0 0 0 0 0 0 0 0 0 2 5 8 10 10 10 12 13 14 15 17 19 20 18 17 15 15 16 18 22 24 23 21 20 20 18 15 14 13 14 14 15 16 17
0 0 0 0 0 0 0 0 0 1 3 6 8 9 9 10 14 17 19 20 20 20 19 19 18 18 18 21 25 29 29 28 26 23 20 18 17 17 18 19 19 20 21 22
0 0 0 0 0 0 0 0 1 2 4 6 7 6 5 8 13 18 21 21 19 19 20 21 22 22 22 25 30 33 32 31 30 28 24 23 23 22 21 22 24 24 24 25
0 0 0 0 0 0 0 1 2 4 5 6 5 4 4 7 13 19 22 22 19 19 20 22 25 28 28 29 32 33 31 31 32 32 29 28 27 25 23 23 24 25 25 25
0 0 0 0 0 0 1 3 5 5 5 5 5 4 6 12 17 21 24 24 22 20 20 23 25 29 31 30 28 27 25 26 29 30 29 28 27 25 24 25 23 23 24 24
0 0 0 0 0 1 2 4 6 6 4 4 5 8 12 18 23 24 23 23 23 22 22 22 23 24 27 27 23 20 21 22 25 26 24 22 23 23 24 24 22 21 23 23
0 0 0 0 0 1 3 5 5 4 3 4 8 11 15 19 24 24 21 22 24 23 22 22 20 21 21 21 19 19 21 22 23 21 18 17 18 20 21 20 20 20 21 21
1 1 2 1 1 1 2 4 3 2 3 5 9 12 15 18 22 23 22 23 24 22 20 20 18 16 16 16 18 21 23 24 22 18 16 15 15 15 15 15 17 19 19 19
2 3 3 3 3 2 2 2 1 2 4 6 8 11 14 18 22 24 25 26 24 21 19 19 17 14 13 14 18 22 24 25 22 20 17 17 17 14 12 12 15 18 19 20
2 2 3 4 5 4 2 1 1 2 5 7 9 11 14 20 24 26 27 27 24 20 19 19 17 16 15 16 18 21 23 24 23 21 21 21 21 18 12 9 10 13 15 16
1 1 1 3 5 4 2 2 2 3 6 9 10 12 16 21 25 27 28 27 24 20 18 16 15 15 16 17 19 21 21 21 20 18 19 20 21 19 13 7 5 5 6 7
0 0 1 3 3 2 2 1 2 4 8 9 10 13 17 21 23 25 26 25 21 17 15 13 12 12 13 15 18 19 19 18 17 15 14 15 18 20 17 10 5 3 1 1
0 0 2 3 3 2 1 1 2 5 9 10 11 14 18 20 21 22 22 20 17 15 13 11 10 11 11 12 13 15 16 17 17 15 12 12 15 20 20 17 12 7 4 1
1 1 2 3 3 3 2 2 3 5 8 10 12 15 18 18 18 19 17 15 14 13 12 10 9 9 9 9 9 11 12 13 14 14 12 12 13 17 19 19 17 13 9 5
2 2 2 3 3 3 3 3 4 5 7 8 9 12 16 16 15 15 14 11 11 11 9 9 8 7 7 6 6 8 9 9 9 11 11 11 12 15 17 17 17 16 13 10
3 3 3 3 3 3 3 3 4 5 6 6 7 9 12 13 12 12 12 11 9 6 6 6 6 6 5 4 4 5 6 6 7 8 10 10 11 14 16 16 16 15 12 10
2 2 3 3 4 4 4 4 5 6 6 7 7 8 10 11 11 11 12 11 8 5 4 4 4 5 5 4 3 4 4 5 6 7 8 9 12 15 16 16 15 13 10 7
1 1 2 4 5 6 5 5 5 6 6 7 7 7 8 9 10 11 11 10 7 5 4 3 3 4 5 4 3 3 3 4 6 7 7 9 12 15 16 16 14 12 9 7
1 2 4 5 6 6 5 4 5 5 6 6 6 7 7 7 8 9 8 7 5 4 3 3 3 3 4 3 3 3 3 4 5 7 7 8 11 13 14 13 11 9 7 6
2 3 4 5 6 5 5 4 5 6 6 6 6 6 6 6 6 5 4 2 2 2 3 3 3 3 3 3 3 3 4 5 6 7 7 7 9 11 11 10 8 5 3 2
3 3 4 6 7 7 6 6 6 6 6 6 6 6 6 5 3 1 1 0 0 1 2 2 2 3 3 3 3 4 6 7 8 9 8 7 8 9 8 7 5 3 2 1
3 4 5 6 6 7 7 6 6 6 7 7 6 4 3 2 1 0 0 0 0 0 1 1 1 1 3 3 3 4 7 9 9 9 8 8 7 7 5 3 3 3 3 3
4 4 4 5 5 5 6 6 6 6 6 6 3 1 1 0 0 0 0 0 0 0 0 0 0 1 2 3 3 4 6 8 8 7 6 6 6 5 3 1 1 1 2 3
5 5 6 6 5 4 4 4 3 3 3 2 1 0 0 0 0 0 0 0 0 0 0 0 0 0 1 2 2 2 4 5 4 3 3 3 3 2 1 0 0 0 1 2
4 5 7 8 5 3 3 3 1 1 0 0 0 0 0 0 0 0 0 0 0 0 0 0 0 0 0 0 0 1 1 1 1 1 1 1 1 0 0 0 0 0 1 2
2 3 7 7 5 3 3 2 1 0 0 0 0 0 0 0 0 0 0 0 0 0 0 0 0 0 0 0 0 0 0 0 0 0 0 1 0 0 0 0 0 0 1 1
Wind_Speed
7 6 7 9 10 10 11 10 10 8 6 2 1 1 1 1 2 3 3 3 4 4 4 5 5 5 5 4 4 4 5 5 5 5 5 5 4 4 4 4 5 4 5 5
9 8 9 10 10 10 10 10 9 8 5 1 0 1 2 2 2 2 2 2 3 3 4 4 4 4 4 4 4 4 5 5 5 5 5 5 5 5 5 5 5 4 5 5
9 8 10 12 10 10 9 8 9 9 3 2 2 1 2 2 2 2 2 2 1 2 3 3 3 3 4 4 3 4 4 4 4 4 5 5 5 4 5 5 5 5 6 6
7 9 13 4 3 6 7 7 6 5 3 3 2 1 1 2 2 1 1 1 1 1 1 2 2 3 3 3 3 3 3 3 3 4 4 4 4 4 4 5 5 5 6 6
8 10 10 6 4 4 6 7 4 4 3 1 1 2 3 2 1 1 1 1 1 1 1 2 1 2 3 3 3 2 2 2 2 3 4 4 4 4 4 5 5 5 5 6
8 10 10 3 3 2 6 8 2 3 2 1 3 6 2 2 1 1 1 1 1 1 2 2 2 1 2 2 2 2 2 2 2 2 3 4 4 5 4 5 5 6 5 5
10 10 6 4 1 4 8 1 1 3 3 3 4 4 1 0 0 0 1 2 1 1 1 2 2 1 2 1 1 1 1 2 2 3 4 4 4 4 4 5 5 6 6 6
8 10 4 4 1 3 3 4 2 3 3 3 1 0 0 0 1 1 1 1 1 1 2 2 2 1 1 1 0 1 1 1 2 3 4 3 3 4 4 5 6 6 6 6
4 3 3 1 2 3 3 2 3 3 3 2 2 2 1 1 1 0 0 1 1 2 2 2 2 1 1 0 1 1 1 2 2 3 3 3 4 4 5 5 5 5 5 5
4 2 1 2 3 2 2 3 3 3 3 2 2 2 2 1 1 1 1 1 1 1 1 1 1 0 0 0 1 2 2 2 3 3 3 3 4 4 4 4 4 5 5 5
5 3 2 1 1 2 3 3 3 3 3 3 3 2 2 2 2 2 2 2 2 1 1 1 0 1 1 1 2 2 3 3 4 4 3 3 4 4 5 4 3 5 6 6
3 2 3 2 2 3 4 4 4 4 4 3 3 3 3 2 2 2 2 2 2 2 1 1 1 1 1 2 2 3 4 4 4 4 3 4 4 4 3 5 4 5 7 8
2 2 3 3 3 4 4 4 4 4 4 2 2 3 3 2 2 2 2 2 2 1 1 1 1 1 2 2 3 4 5 5 4 4 4 4 5 5 5 4 6 7 8 8
2 3 3 3 3 3 3 4 4 3 3 2 2 2 2 2 2 2 2 2 2 2 2 2 2 2 2 3 3 4 5 4 5 5 5 5 5 5 5 6 5 4 4 7
4 4 4 3 3 3 3 3 2 2 2 2 2 2 2 2 2 2 2 2 2 2 2 2 3 3 3 3 4 5 5 4 4 5 5 5 5 6 6 6 6 5 4 3
3 4 3 3 3 3 3 2 2 2 2 2 2 2 2 3 2 2 2 2 3 3 2 3 3 3 4 4 5 4 4 4 5 6 5 5 5 6 5 5 6 5 5 4
5 5 4 4 4 4 4 3 2 2 2 2 2 2 2 2 2 2 2 2 2 2 3 3 4 4 4 5 6 5 5 4 4 5 5 6 6 6 5 5 5 5 5 3
6 5 4 4 4 4 4 3 2 2 2 2 2 2 3 3 3 3 2 2 3 3 3 4 4 4 4 5 5 5 5 5 5 5 5 5 5 5 5 5 5 6 5 3
3 4 4 4 4 4 4 4 3 3 2 2 2 2 3 3 3 3 3 3 3 4 3 3 3 5 5 4 5 5 5 6 5 5 5 4 5 5 5 5 5 5 4 4
2 2 2 2 3 3 3 2 2 3 3 3 3 3 2 2 2 3 3 3 3 3 3 3 4 4 4 4 5 5 5 5 5 5 4 4 4 3 4 4 5 5 4 4
1 1 1 1 1 2 1 1 2 2 2 3 3 3 2 2 2 3 3 3 2 3 3 3 3 3 3 3 5 4 4 4 4 4 4 4 4 4 3 4 4 4 3 3
0 0 1 1 1 1 1 1 1 2 2 2 3 3 2 2 3 3 2 2 2 2 3 3 2 3 4 5 4 4 3 4 4 3 3 4 4 4 3 4 4 4 3 3
0 0 0 0 1 1 1 1 1 1 1 2 2 2 2 2 2 2 2 1 2 2 3 3 4 3 4 5 4 3 3 3 3 3 3 3 3 3 4 4 3 3 3 3
1 0 0 1 1 1 1 1 1 1 1 1 1 1 2 2 2 2 2 1 1 2 3 2 1 3 5 4 3 3 3 3 3 3 3 3 3 3 3 3 3 3 3 3
1 1 1 2 2 1 1 1 1 1 1 1 1 1 1 1 2 2 2 2 1 2 3 1 2 4 4 3 3 3 3 3 4 4 4 4 3 3 3 3 3 3 3 3
1 2 1 2 2 2 2 2 2 1 1 1 1 1 1 1 1 2 2 2 2 3 3 2 1 3 3 3 3 3 3 3 3 4 3 3 3 3 3 3 4 3 3 2
2 1 1 2 2 2 2 1 2 2 2 1 1 1 2 2 2 2 3 3 3 3 3 3 3 2 3 3 3 4 4 4 4 4 3 3 3 3 3 3 3 3 2 2
Wind_Direction
256 262 245 233 232 231 241 256 263 262 259 277 326 334 83 136 147 135 139 158 166 172 174 174 175 179 183 190 190 191 198 208 214 219 221 227 230 235 239 245 250 253 258 262
236 233 236 239 235 234 240 251 254 255 252 199 267 116 110 139 150 128 131 155 175 179 180 180 182 186 186 191 193 194 203 210 216 226 227 230 233 235 239 245 254 258 257 258
233 224 238 232 228 231 234 241 248 251 246 206 201 178 164 178 162 140 132 137 157 185 191 188 189 186 188 187 188 194 205 214 218 229 233 237 241 239 243 247 251 253 256 256
239 228 239 219 212 240 240 244 254 257 234 227 229 186 169 176 167 144 122 105 118 135 159 165 170 171 179 173 182 193 208 226 231 237 238 238 241 244 248 250 253 254 257 260
241 238 237 194 195 230 236 243 246 234 229 234 213 217 182 147 137 150 109 76 77 79 84 88 111 145 163 173 176 186 212 236 243 239 240 241 243 248 253 257 258 258 259 260
238 247 246 188 150 254 244 229 182 232 235 238 237 245 187 107 114 125 108 97 72 78 102 106 98 132 165 171 175 195 231 249 252 253 255 255 257 260 261 261 265 268 266 263
240 246 243 73 99 219 238 257 18 284 254 247 261 300 18 70 86 114 121 103 98 103 107 97 108 130 155 153 170 230 240 244 243 248 250 250 259 263 264 262 266 269 270 264
236 243 222 76 210 256 349 5 320 293 278 274 294 291 257 19 108 121 135 126 130 122 102 99 118 143 149 123 8 309 273 255 250 253 261 256 258 263 266 267 261 259 261 264
267 292 35 15 319 331 319 296 300 292 297 270 249 242 249 261 222 224 195 166 156 140 133 132 141 168 177 17 328 298 278 275 271 263 258 262 257 257 261 261 267 270 271 272
245 233 295 290 300 302 303 300 302 291 274 251 248 253 251 254 245 241 238 204 203 187 168 142 118 130 203 305 289 282 285 286 279 268 264 265 267 264 269 273 279 283 280 281
241 248 264 247 324 333 318 298 290 291 283 267 256 254 261 263 256 251 239 224 220 215 216 226 258 271 282 290 280 284 286 286 283 278 280 276 271 284 279 292 305 287 289 284
249 220 261 278 301 308 303 296 290 283 275 272 266 263 263 256 247 244 238 232 228 226 229 227 239 263 286 283 279 279 276 278 283 287 296 287 282 276 249 253 239 240 255 275
278 263 286 291 289 297 297 299 287 271 263 258 269 269 265 251 238 238 234 231 227 233 237 235 236 269 287 287 284 279 284 287 288 291 290 285 286 287 287 251 226 230 235 240
253 256 263 275 289 299 294 290 283 271 265 260 261 268 267 250 234 228 225 230 229 236 251 259 265 284 303 297 287 281 279 278 279 283 286 286 287 289 288 290 286 275 234 221
235 241 256 273 283 277 270 266 267 277 285 281 275 272 270 257 244 240 240 242 243 247 256 264 276 288 296 289 287 285 285 289 290 290 288 289 291 287 287 289 290 291 291 247
244 241 236 243 259 272 271 258 259 261 271 279 287 292 284 264 252 251 243 242 248 259 275 278 282 288 288 283 282 275 273 280 284 287 285 285 287 288 287 284 284 289 295 304
244 244 240 246 253 262 271 273 271 280 291 293 297 299 291 275 258 256 251 250 255 261 267 269 276 280 278 278 280 281 283 277 259 271 282 287 287 288 288 286 290 292 295 310
247 252 252 246 244 252 260 265 268 272 286 291 292 291 288 274 272 275 277 281 278 279 280 274 279 281 280 281 281 285 288 288 285 284 286 288 291 290 289 292 294 292 295 288
244 249 251 247 246 248 251 256 263 264 261 258 264 278 284 280 282 284 279 275 276 276 283 290 280 271 274 281 282 269 276 282 285 286 284 283 279 287 294 297 295 291 291 294
249 250 250 257 256 253 256 256 261 261 261 263 261 259 270 285 289 286 287 285 293 306 306 297 277 280 283 285 281 275 281 287 292 293 291 293 296 302 305 311 311 313 310 304
272 255 236 242 256 261 265 267 265 266 265 258 255 258 264 270 276 277 276 285 317 320 304 283 277 286 288 301 271 281 295 300 299 299 304 304 306 307 310 316 319 322 317 312
337 258 239 238 262 299 322 304 287 282 283 269 257 254 250 251 255 262 276 299 315 324 291 291 307 352 339 307 289 299 304 307 307 308 307 305 307 310 312 313 312 316 324 327
0 359 357 355 318 336 355 349 321 289 286 284 273 268 267 278 284 287 290 299 303 323 301 327 3 7 319 287 291 294 300 305 307 307 306 305 303 302 304 303 307 314 321 323
318 326 302 281 270 285 309 338 342 325 305 276 274 280 276 271 278 295 315 336 320 308 303 355 348 306 281 280 292 296 299 302 305 309 305 297 296 303 305 306 307 308 308 306
276 263 243 241 242 252 276 284 272 264 272 300 297 278 275 290 303 311 305 310 321 281 288 279 243 260 268 289 295 297 298 306 307 308 299 300 306 306 303 304 307 309 306 304
253 258 261 267 282 280 272 276 282 282 279 286 302 308 311 305 294 284 283 293 296 287 288 290 270 252 278 296 301 302 301 294 281 282 298 303 301 301 303 307 307 306 305 307
226 226 228 242 243 254 269 277 282 284 283 286 291 290 290 291 294 301 298 296 297 294 298 299 297 295 299 302 303 303 304 306 309 312 305 297 298 301 305 304 310 317 314 310